Regional Weather Roundup
Issued by NWS

Home | Current Version | Previous Version | Text Only | Print | Product List | Glossary On
Versions: 1 2 3 4 5 6 7 8 9 10 11 12 13 14 15 16 17 18 19 20 21 22 23 24 25 26 27 28 29 30 31 32 33 34 35 36 37 38 39 40 41 42 43 44 45 46 47 48 49 50
000
ASUS43 KLMK 150402
RWRKY
KENTUCKY REGIONAL WEATHER ROUNDUP
NATIONAL WEATHER SERVICE LOUISVILLE KY
1200 AM EDT MON SEP 15 2014

NOTE "FAIR" INDICATES FEW OR NO CLOUDS BELOW 12,000 FEET
WITH NO SIGNIFICANT WEATHER AND/OR OBSTRUCTIONS TO VISIBILITY.

KYZ001>023-026-027-061>063-070>075-150500-
WESTERN AND SOUTH CENTRAL KENTUCKY

CITY           SKY/WX    TMP DP  RH WIND       PRES   REMARKS
PADUCAH        CLEAR     55  52  89 CALM      30.19S
HENDERSON      CLEAR     52  46  82 CALM      30.21S
OWENSBORO      CLEAR     55  52  90 CALM      30.21S
HOPKINSVILLE   CLEAR     61  53  75 E1        30.20S
BOWLING GREEN  CLEAR     59  53  80 CALM      30.21R
GLASGOW        CLEAR     55  55  99 CALM      30.21S
$$

KYZ024-025-028>034-038-045-046-053-150500-
NORTH CENTRAL KENTUCKY

CITY           SKY/WX    TMP DP  RH WIND       PRES   REMARKS
LOUISVILLE/SDF CLEAR     60  52  74 CALM      30.21S
LOUISVILLE/LOU CLEAR     55  51  86 CALM      30.21S
FORT KNOX      CLEAR     53  51  93 CALM      30.20S
$$

KYZ035>037-039>044-047>052-055>060-089>105-150500-
NORTHEAST KENTUCKY

CITY           SKY/WX    TMP DP  RH WIND       PRES   REMARKS
LEXINGTON      CLEAR     56  49  77 CALM      30.22S
COVINGTON      CLEAR     55  48  77 CALM      30.21S
FRANKFORT      CLEAR     53  51  93 CALM      30.21S
$$

KYZ054-064>069-076>088-106>120-150500-
SOUTHEAST KENTUCKY

CITY           SKY/WX    TMP DP  RH WIND       PRES   REMARKS
JACKSON        CLEAR     59  53  80 CALM      30.22F
LONDON         CLEAR     59  55  87 CALM      30.21F
SOMERSET       NOT AVBL
MIDDLESBORO    MOCLDY    62  61  98 CALM      30.22S
MONTICELLO     PTCLDY    55  55 100 CALM      30.23R
$$



USA.gov is the U.S. government's official web portal to all federal, state and local government web resources and services.